| time (UTC) | temp C | wind direction | speed KPH | gust KPH | rain 1hr cm | rain 24hr cm | rain mn cm | humidity % | barometer mb |
| 20260506191633 | 16 | 95 | 0.0 | 8.0 | 0.08 | 0.08 | 0.00 | 72 | 1013.3 |
| 20260506191329 | 16 | 97 | 0.0 | 8.0 | 0.08 | 0.08 | 0.00 | 71 | 1013.2 |
| 20260506191026 | 16 | 97 | 0.0 | 3.2 | 0.08 | 0.08 | 0.00 | 71 | 1013.1 |
| 20260506190723 | 17 | 100 | 1.6 | 8.0 | 0.08 | 0.08 | 0.00 | 71 | 1013.2 |
| 20260506190419 | 17 | 103 | 1.6 | 8.0 | 0.08 | 0.08 | 0.00 | 71 | 1013.1 |
| 20260506190116 | 17 | 101 | 3.2 | 12.9 | 0.08 | 0.08 | 0.00 | 71 | 1013.0 |
| 20260506185812 | 17 | 98 | 4.8 | 12.9 | 0.08 | 0.08 | 0.00 | 71 | 1013.1 |
| 20260506185509 | 17 | 97 | 0.0 | 4.8 | 0.08 | 0.08 | 0.00 | 71 | 1013.1 |
| 20260506185206 | 17 | 99 | 0.0 | 4.8 | 0.08 | 0.08 | 0.00 | 70 | 1012.7 |
| 20260506184902 | 17 | 100 | 0.0 | 8.0 | 0.08 | 0.08 | 0.00 | 70 | 1012.7 |
| 20260506184559 | 17 | 107 | 4.8 | 8.0 | 0.08 | 0.08 | 0.00 | 70 | 1012.6 |
| 20260506184256 | 17 | 100 | 0.0 | 4.8 | 0.08 | 0.08 | 0.00 | 70 | 1012.5 |
| 20260506183952 | 17 | 101 | 0.0 | 4.8 | 0.08 | 0.08 | 0.00 | 70 | 1012.4 |
| 20260506183649 | 17 | 98 | 0.0 | 6.4 | 0.08 | 0.08 | 0.00 | 70 | 1012.6 |
| 20260506183346 | 17 | 102 | 0.0 | 6.4 | 0.08 | 0.08 | 0.00 | 70 | 1012.6 |
| 20260506183042 | 17 | 41 | 1.6 | 4.8 | 0.08 | 0.08 | 0.00 | 70 | 1012.4 |
| 20260506182739 | 17 | 312 | 0.0 | 3.2 | 0.08 | 0.08 | 0.00 | 70 | 1012.5 |
| 20260506182436 | 17 | 277 | 0.0 | 3.2 | 0.08 | 0.08 | 0.00 | 70 | 1012.5 |
| 20260506182132 | 17 | 272 | 0.0 | 3.2 | 0.08 | 0.08 | 0.00 | 69 | 1012.5 |
| 20260506181829 | 17 | 264 | 0.0 | 3.2 | 0.08 | 0.08 | 0.00 | 69 | 1012.4 |
| 20260506181526 | 17 | 264 | 0.0 | 1.6 | 0.08 | 0.08 | 0.00 | 69 | 1012.2 |
| 20260506181222 | 17 | 260 | 0.0 | 1.6 | 0.08 | 0.08 | 0.00 | 68 | 1012.3 |
| 20260506180919 | 17 | 260 | 0.0 | 3.2 | 0.08 | 0.08 | 0.00 | 68 | 1012.1 |
| 20260506180616 | 17 | 259 | 0.0 | 3.2 | 0.08 | 0.08 | 0.00 | 67 | 1012.1 |
| 20260506180312 | 17 | 259 | 0.0 | 6.4 | 0.08 | 0.08 | 0.00 | 67 | 1012.2 |
| 20260506180009 | 18 | 256 | 4.8 | 9.7 | 0.08 | 0.08 | 0.00 | 66 | 1012.4 |
| 20260506175705 | 18 | 254 | 0.0 | 9.7 | 0.08 | 0.08 | 0.00 | 66 | 1012.3 |
| 20260506175402 | 18 | 256 | 3.2 | 4.8 | 0.08 | 0.08 | 0.00 | 66 | 1012.3 |
| 20260506175059 | 18 | 256 | 0.0 | 16.1 | 0.08 | 0.08 | 0.00 | 66 | 1012.2 |
| 20260506174755 | 18 | 258 | 8.0 | 16.1 | 0.08 | 0.08 | 0.00 | 66 | 1012.1 |
| 20260506174452 | 18 | 263 | 0.0 | 1.6 | 0.08 | 0.08 | 0.00 | 66 | 1012.1 |
| 20260506174148 | 18 | 261 | 0.0 | 4.8 | 0.08 | 0.08 | 0.00 | 65 | 1012.3 |
| 20260506173845 | 18 | 260 | 3.2 | 8.0 | 0.08 | 0.08 | 0.00 | 65 | 1012.2 |
| 20260506173542 | 18 | 261 | 0.0 | 8.0 | 0.08 | 0.08 | 0.00 | 65 | 1012.2 |
| 20260506173238 | 18 | 260 | 4.8 | 12.9 | 0.08 | 0.08 | 0.00 | 64 | 1012.2 |
| 20260506172935 | 19 | 264 | 4.8 | 8.0 | 0.08 | 0.08 | 0.00 | 64 | 1011.9 |
| 20260506172632 | 19 | 265 | 4.8 | 8.0 | 0.08 | 0.08 | 0.00 | 63 | 1012.1 |
| 20260506172328 | 20 | 267 | 1.6 | 3.2 | 0.08 | 0.08 | 0.00 | 61 | 1012.1 |
| 20260506172025 | 20 | 266 | 0.0 | 1.6 | 0.08 | 0.08 | 0.00 | 60 | 1012.2 |
| 20260506171722 | 20 | 264 | 0.0 | 1.6 | 0.08 | 0.08 | 0.00 | 61 | 1012.1 |
| 20260506171419 | 20 | 263 | 0.0 | 4.8 | 0.08 | 0.08 | 0.00 | 62 | 1012.1 |
| 20260506171115 | 20 | 263 | 0.0 | 16.1 | 0.08 | 0.08 | 0.00 | 61 | 1012.2 |
| 20260506170812 | 20 | 264 | 4.8 | 16.1 | 0.08 | 0.08 | 0.00 | 62 | 1012.2 |
| 20260506170508 | 20 | 266 | 4.8 | 4.8 | 0.08 | 0.08 | 0.00 | 61 | 1012.0 |
| 20260506170205 | 20 | 266 | 0.0 | 9.7 | 0.08 | 0.08 | 0.00 | 61 | 1012.4 |
| 20260506165902 | 20 | 266 | 0.0 | 9.7 | 0.08 | 0.08 | 0.00 | 61 | 1012.1 |
| 20260506165558 | 20 | 266 | 4.8 | 20.9 | 0.08 | 0.08 | 0.00 | 60 | 1012.0 |
| 20260506165255 | 20 | 266 | 8.0 | 20.9 | 0.08 | 0.08 | 0.00 | 60 | 1012.3 |
| 20260506164952 | 21 | 266 | 8.0 | 14.5 | 0.08 | 0.08 | 0.00 | 58 | 1012.2 |
| 20260506164648 | 21 | 266 | 1.6 | 9.7 | 0.08 | 0.08 | 0.00 | 57 | 1012.4 |
| 20260506164345 | 21 | 266 | 3.2 | 14.5 | 0.08 | 0.08 | 0.00 | 56 | 1012.2 |
| 20260506164042 | 21 | 266 | 8.0 | 14.5 | 0.08 | 0.08 | 0.00 | 57 | 1012.3 |
| 20260506163738 | 20 | 266 | 0.0 | 14.5 | 0.08 | 0.08 | 0.00 | 59 | 1012.1 |
| 20260506163435 | 20 | 266 | 1.6 | 24.1 | 0.08 | 0.08 | 0.00 | 59 | 1012.2 |
| 20260506163132 | 20 | 266 | 9.7 | 19.3 | 0.08 | 0.08 | 0.00 | 59 | 1012.1 |
| 20260506162828 | 20 | 266 | 3.2 | 19.3 | 0.08 | 0.08 | 0.00 | 60 | 1012.4 |
| 20260506162525 | 20 | 266 | 6.4 | 17.7 | 0.08 | 0.08 | 0.00 | 59 | 1012.4 |
| 20260506162222 | 20 | 266 | 3.2 | 20.9 | 0.08 | 0.08 | 0.00 | 59 | 1012.4 |
| 20260506161918 | 20 | 266 | 4.8 | 19.3 | 0.08 | 0.08 | 0.00 | 59 | 1012.1 |
| 20260506161615 | 20 | 266 | 1.6 | 29.0 | 0.08 | 0.08 | 0.00 | 58 | 1012.3 |
| 20260506161312 | 21 | 266 | 4.8 | 16.1 | 0.08 | 0.08 | 0.00 | 56 | 1012.3 |
| 20260506161008 | 22 | 266 | 11.3 | 16.1 | 0.08 | 0.08 | 0.00 | 54 | 1012.2 |
| 20260506160705 | 21 | 266 | 3.2 | 14.5 | 0.08 | 0.08 | 0.00 | 55 | 1012.1 |
| 20260506160401 | 21 | 266 | 1.6 | 17.7 | 0.08 | 0.08 | 0.00 | 57 | 1012.4 |
| 20260506160058 | 20 | 266 | 11.3 | 17.7 | 0.08 | 0.08 | 0.00 | 57 | 1012.4 |
| 20260506155755 | 21 | 266 | 9.7 | 22.5 | 0.08 | 0.08 | 0.00 | 56 | 1012.5 |
| 20260506155451 | 21 | 266 | 9.7 | 22.5 | 0.08 | 0.08 | 0.00 | 55 | 1012.5 |
| 20260506155148 | 21 | 266 | 11.3 | 20.9 | 0.08 | 0.08 | 0.00 | 54 | 1012.3 |
| 20260506154844 | 21 | 266 | 14.5 | 27.4 | 0.08 | 0.08 | 0.00 | 55 | 1012.3 |
| 20260506154541 | 21 | 266 | 14.5 | 27.4 | 0.08 | 0.08 | 0.00 | 55 | 1012.5 |
| 20260506154238 | 21 | 266 | 12.9 | 20.9 | 0.08 | 0.08 | 0.00 | 55 | 1012.4 |
| 20260506153934 | 21 | 266 | 14.5 | 20.9 | 0.08 | 0.08 | 0.00 | 56 | 1012.6 |
| 20260506153631 | 21 | 266 | 14.5 | 19.3 | 0.08 | 0.08 | 0.00 | 54 | 1012.4 |
| 20260506153328 | 21 | 266 | 4.8 | 33.8 | 0.08 | 0.08 | 0.00 | 54 | 1012.4 |
| 20260506153024 | 22 | 266 | 4.8 | 33.8 | 0.08 | 0.08 | 0.00 | 54 | 1012.5 |
| 20260506152721 | 22 | 266 | 6.4 | 19.3 | 0.08 | 0.08 | 0.00 | 52 | 1012.4 |
| 20260506152418 | 22 | 266 | 1.6 | 16.1 | 0.08 | 0.08 | 0.00 | 53 | 1012.6 |
| 20260506152115 | 22 | 266 | 4.8 | 17.7 | 0.08 | 0.08 | 0.00 | 53 | 1012.4 |
| 20260506151811 | 22 | 266 | 4.8 | 17.7 | 0.08 | 0.08 | 0.00 | 52 | 1012.4 |
| 20260506151508 | 23 | 266 | 11.3 | 17.7 | 0.08 | 0.08 | 0.00 | 50 | 1012.6 |
| 20260506151204 | 23 | 266 | 6.4 | 19.3 | 0.08 | 0.08 | 0.00 | 50 | 1012.3 |
| 20260506150901 | 23 | 266 | 4.8 | 19.3 | 0.08 | 0.08 | 0.00 | 51 | 1012.3 |
| 20260506150558 | 23 | 266 | 6.4 | 22.5 | 0.08 | 0.08 | 0.00 | 49 | 1012.3 |
| 20260506150302 | 23 | 266 | 6.4 | 22.5 | 0.08 | 0.08 | 0.00 | 52 | 1012.3 |
| 20260506145951 | 23 | 266 | 6.4 | 19.3 | 0.08 | 0.08 | 0.00 | 50 | 1012.1 |
| 20260506145648 | 23 | 266 | 3.2 | 29.0 | 0.08 | 0.08 | 0.00 | 52 | 1012.5 |
| 20260506145344 | 23 | 266 | 11.3 | 29.0 | 0.08 | 0.08 | 0.00 | 50 | 1012.2 |
| 20260506145041 | 23 | 266 | 6.4 | 27.4 | 0.08 | 0.08 | 0.00 | 49 | 1012.4 |
| 20260506144738 | 23 | 266 | 8.0 | 27.4 | 0.08 | 0.08 | 0.00 | 51 | 1012.3 |
| 20260506144434 | 23 | 266 | 11.3 | 19.3 | 0.08 | 0.08 | 0.00 | 51 | 1012.5 |
| 20260506144131 | 23 | 266 | 3.2 | 19.3 | 0.08 | 0.08 | 0.00 | 50 | 1012.3 |
| 20260506143827 | 23 | 266 | 0.0 | 19.3 | 0.08 | 0.08 | 0.00 | 51 | 1012.4 |
| 20260506143524 | 23 | 266 | 8.0 | 14.5 | 0.08 | 0.08 | 0.00 | 51 | 1012.5 |
| 20260506143220 | 23 | 266 | 3.2 | 14.5 | 0.08 | 0.08 | 0.00 | 51 | 1012.4 |
| 20260506142917 | 23 | 266 | 9.7 | 30.6 | 0.08 | 0.08 | 0.00 | 51 | 1012.4 |
| 20260506142614 | 23 | 266 | 16.1 | 30.6 | 0.08 | 0.08 | 0.00 | 51 | 1012.4 |
| 20260506142310 | 23 | 266 | 0.0 | 17.7 | 0.08 | 0.08 | 0.00 | 51 | 1012.6 |
| 20260506142007 | 23 | 266 | 6.4 | 16.1 | 0.08 | 0.08 | 0.00 | 51 | 1012.6 |
| 20260506141704 | 23 | 266 | 3.2 | 16.1 | 0.08 | 0.08 | 0.00 | 50 | 1012.7 |
| 20260506141400 | 22 | 266 | 1.6 | 16.1 | 0.08 | 0.08 | 0.00 | 51 | 1012.4 |
| 20260506141057 | 22 | 266 | 1.6 | 17.7 | 0.08 | 0.08 | 0.00 | 51 | 1012.5 |
| 20260506140753 | 23 | 266 | 9.7 | 24.1 | 0.08 | 0.08 | 0.00 | 50 | 1012.5 |
| 20260506140450 | 23 | 266 | 4.8 | 27.4 | 0.08 | 0.08 | 0.00 | 49 | 1012.6 |
| 20260506140147 | 23 | 266 | 16.1 | 27.4 | 0.08 | 0.08 | 0.00 | 49 | 1012.4 |
| 20260506135843 | 23 | 266 | 1.6 | 29.0 | 0.08 | 0.08 | 0.00 | 48 | 1012.5 |
| 20260506135540 | 23 | 266 | 6.4 | 29.0 | 0.08 | 0.08 | 0.00 | 48 | 1012.8 |
| 20260506135236 | 23 | 266 | 3.2 | 12.9 | 0.08 | 0.08 | 0.00 | 48 | 1012.4 |
| 20260506134933 | 23 | 266 | 6.4 | 22.5 | 0.08 | 0.08 | 0.00 | 48 | 1012.6 |
| 20260506134630 | 23 | 266 | 16.1 | 27.4 | 0.08 | 0.08 | 0.00 | 48 | 1012.6 |
| 20260506134326 | 23 | 266 | 6.4 | 27.4 | 0.08 | 0.08 | 0.00 | 48 | 1012.6 |
| 20260506134023 | 23 | 266 | 17.7 | 22.5 | 0.08 | 0.08 | 0.00 | 49 | 1012.5 |
| 20260506133720 | 24 | 266 | 12.9 | 16.1 | 0.08 | 0.08 | 0.00 | 47 | 1012.6 |
| 20260506133416 | 23 | 266 | 3.2 | 12.9 | 0.08 | 0.08 | 0.00 | 49 | 1012.2 |
| 20260506133113 | 23 | 266 | 6.4 | 20.9 | 0.08 | 0.08 | 0.00 | 49 | 1012.6 |
| 20260506132810 | 24 | 266 | 11.3 | 20.9 | 0.08 | 0.08 | 0.00 | 49 | 1012.7 |
| 20260506132506 | 23 | 266 | 3.2 | 22.5 | 0.08 | 0.08 | 0.00 | 49 | 1012.7 |
| 20260506132203 | 23 | 266 | 12.9 | 22.5 | 0.08 | 0.08 | 0.00 | 49 | 1012.6 |
| 20260506131859 | 24 | 266 | 6.4 | 12.9 | 0.08 | 0.08 | 0.00 | 48 | 1012.7 |
| 20260506131556 | 23 | 266 | 3.2 | 12.9 | 0.08 | 0.08 | 0.00 | 49 | 1012.7 |
| 20260506131253 | 24 | 266 | 3.2 | 17.7 | 0.08 | 0.08 | 0.00 | 48 | 1012.7 |
| 20260506130949 | 25 | 266 | 11.3 | 16.1 | 0.08 | 0.08 | 0.00 | 48 | 1012.6 |
| 20260506130646 | 24 | 266 | 4.8 | 17.7 | 0.08 | 0.08 | 0.00 | 50 | 1012.7 |
| 20260506130343 | 23 | 266 | 11.3 | 17.7 | 0.08 | 0.08 | 0.00 | 50 | 1012.7 |
| 20260506130039 | 23 | 266 | 3.2 | 14.5 | 0.08 | 0.08 | 0.00 | 49 | 1012.7 |
| 20260506125736 | 24 | 266 | 9.7 | 14.5 | 0.08 | 0.08 | 0.00 | 48 | 1012.6 |
| 20260506125433 | 23 | 266 | 1.6 | 17.7 | 0.08 | 0.08 | 0.00 | 50 | 1012.7 |
| 20260506125129 | 23 | 266 | 3.2 | 17.7 | 0.08 | 0.08 | 0.00 | 51 | 1012.8 |
| 20260506124826 | 23 | 266 | 4.8 | 20.9 | 0.08 | 0.08 | 0.00 | 51 | 1012.9 |
| 20260506124523 | 23 | 266 | 8.0 | 22.5 | 0.08 | 0.08 | 0.00 | 50 | 1012.7 |
| 20260506124219 | 23 | 266 | 4.8 | 16.1 | 0.08 | 0.08 | 0.00 | 49 | 1012.7 |
| 20260506123916 | 23 | 266 | 9.7 | 27.4 | 0.08 | 0.08 | 0.00 | 48 | 1012.9 |
| 20260506123612 | 22 | 266 | 4.8 | 32.2 | 0.08 | 0.08 | 0.00 | 49 | 1013.0 |
| 20260506123309 | 22 | 266 | 25.7 | 32.2 | 0.08 | 0.08 | 0.00 | 49 | 1013.0 |
| 20260506123006 | 23 | 266 | 3.2 | 9.7 | 0.08 | 0.08 | 0.00 | 52 | 1012.9 |
| 20260506122702 | 23 | 266 | 6.4 | 9.7 | 0.08 | 0.08 | 0.00 | 52 | 1012.9 |
| 20260506122359 | 23 | 266 | 1.6 | 6.4 | 0.08 | 0.08 | 0.00 | 51 | 1013.2 |
| 20260506122056 | 23 | 266 | 0.0 | 14.5 | 0.08 | 0.08 | 0.00 | 50 | 1013.0 |
| 20260506121752 | 23 | 266 | 9.7 | 16.1 | 0.08 | 0.08 | 0.00 | 48 | 1013.0 |
| 20260506121449 | 23 | 266 | 3.2 | 16.1 | 0.08 | 0.08 | 0.00 | 49 | 1013.1 |
| 20260506121146 | 23 | 266 | 8.0 | 16.1 | 0.08 | 0.08 | 0.00 | 50 | 1013.1 |
| 20260506120842 | 23 | 266 | 8.0 | 19.3 | 0.08 | 0.08 | 0.00 | 50 | 1013.2 |
| 20260506120539 | 23 | 266 | 4.8 | 19.3 | 0.08 | 0.08 | 0.00 | 50 | 1013.0 |
| 20260506120235 | 23 | 266 | 4.8 | 14.5 | 0.08 | 0.08 | 0.00 | 49 | 1012.9 |
| 20260506115932 | 22 | 266 | 11.3 | 22.5 | 0.08 | 0.08 | 0.00 | 50 | 1012.8 |
| 20260506115629 | 23 | 266 | 16.1 | 22.5 | 0.08 | 0.08 | 0.00 | 49 | 1012.8 |
| 20260506115325 | 23 | 266 | 12.9 | 22.5 | 0.08 | 0.08 | 0.00 | 50 | 1012.8 |
| 20260506115022 | 23 | 266 | 4.8 | 22.5 | 0.08 | 0.08 | 0.00 | 50 | 1013.0 |
| 20260506114719 | 22 | 266 | 6.4 | 20.9 | 0.08 | 0.08 | 0.00 | 50 | 1013.1 |
| 20260506114415 | 23 | 266 | 11.3 | 19.3 | 0.08 | 0.08 | 0.00 | 50 | 1012.7 |
| 20260506114112 | 22 | 266 | 14.5 | 16.1 | 0.08 | 0.08 | 0.00 | 50 | 1013.1 |
| 20260506113809 | 22 | 266 | 6.4 | 17.7 | 0.08 | 0.08 | 0.00 | 51 | 1013.1 |
| 20260506113505 | 22 | 266 | 12.9 | 17.7 | 0.08 | 0.08 | 0.00 | 51 | 1013.1 |
| 20260506113202 | 22 | 266 | 8.0 | 17.7 | 0.08 | 0.08 | 0.00 | 51 | 1013.2 |
| 20260506112858 | 23 | 266 | 6.4 | 19.3 | 0.08 | 0.08 | 0.00 | 50 | 1013.4 |
| 20260506112555 | 22 | 266 | 14.5 | 19.3 | 0.08 | 0.08 | 0.00 | 50 | 1013.1 |
| 20260506112252 | 22 | 266 | 8.0 | 20.9 | 0.08 | 0.08 | 0.00 | 51 | 1013.4 |
| 20260506111948 | 22 | 266 | 9.7 | 22.5 | 0.08 | 0.08 | 0.00 | 51 | 1013.3 |
| 20260506111645 | 22 | 266 | 9.7 | 22.5 | 0.08 | 0.08 | 0.00 | 52 | 1013.4 |
| 20260506111342 | 22 | 266 | 9.7 | 14.5 | 0.08 | 0.08 | 0.00 | 51 | 1013.4 |
| 20260506111038 | 22 | 266 | 3.2 | 20.9 | 0.08 | 0.08 | 0.00 | 52 | 1013.1 |
| 20260506110735 | 22 | 266 | 4.8 | 24.1 | 0.08 | 0.08 | 0.00 | 52 | 1013.3 |
| 20260506110431 | 23 | 266 | 16.1 | 24.1 | 0.08 | 0.08 | 0.00 | 50 | 1013.4 |
| 20260506110128 | 22 | 266 | 1.6 | 14.5 | 0.08 | 0.08 | 0.00 | 53 | 1013.3 |
| 20260506105825 | 21 | 266 | 3.2 | 14.5 | 0.08 | 0.08 | 0.00 | 55 | 1013.4 |
| 20260506105521 | 21 | 266 | 1.6 | 17.7 | 0.08 | 0.08 | 0.00 | 57 | 1013.4 |
| 20260506105218 | 21 | 266 | 0.0 | 20.9 | 0.08 | 0.08 | 0.00 | 56 | 1013.6 |
| 20260506104915 | 22 | 266 | 11.3 | 20.9 | 0.08 | 0.08 | 0.00 | 54 | 1013.6 |
| 20260506104611 | 22 | 266 | 8.0 | 20.9 | 0.08 | 0.08 | 0.00 | 52 | 1013.6 |
| 20260506104308 | 22 | 266 | 4.8 | 14.5 | 0.08 | 0.08 | 0.00 | 50 | 1013.1 |
| 20260506104005 | 22 | 266 | 6.4 | 16.1 | 0.08 | 0.08 | 0.00 | 49 | 1013.3 |
| 20260506103701 | 22 | 266 | 14.5 | 20.9 | 0.08 | 0.08 | 0.00 | 47 | 1013.5 |
| 20260506103358 | 23 | 266 | 9.7 | 12.9 | 0.08 | 0.08 | 0.00 | 46 | 1013.3 |
| 20260506103054 | 23 | 266 | 1.6 | 14.5 | 0.08 | 0.08 | 0.00 | 45 | 1013.3 |
| 20260506102751 | 23 | 266 | 3.2 | 16.1 | 0.08 | 0.08 | 0.00 | 44 | 1013.0 |
| 20260506102448 | 23 | 266 | 8.0 | 22.5 | 0.08 | 0.08 | 0.00 | 44 | 1013.2 |
| 20260506102144 | 24 | 266 | 6.4 | 22.5 | 0.08 | 0.08 | 0.00 | 44 | 1013.3 |
| 20260506101841 | 23 | 266 | 4.8 | 20.9 | 0.08 | 0.08 | 0.00 | 43 | 1013.1 |
| 20260506101538 | 24 | 266 | 8.0 | 14.5 | 0.08 | 0.08 | 0.00 | 41 | 1013.5 |
| 20260506101234 | 23 | 266 | 1.6 | 19.3 | 0.08 | 0.08 | 0.00 | 41 | 1013.2 |
| 20260506100931 | 23 | 266 | 8.0 | 19.3 | 0.08 | 0.08 | 0.00 | 44 | 1013.4 |
| 20260506100627 | 23 | 266 | 11.3 | 16.1 | 0.08 | 0.08 | 0.00 | 43 | 1013.4 |
| 20260506100324 | 23 | 266 | 8.0 | 16.1 | 0.08 | 0.08 | 0.00 | 41 | 1013.1 |
| 20260506100021 | 23 | 266 | 1.6 | 16.1 | 0.08 | 0.08 | 0.00 | 43 | 1013.1 |
| 20260506095717 | 23 | 266 | 4.8 | 12.9 | 0.08 | 0.08 | 0.00 | 42 | 1013.3 |
| 20260506095414 | 23 | 266 | 3.2 | 22.5 | 0.08 | 0.08 | 0.00 | 42 | 1013.2 |
| 20260506095111 | 23 | 266 | 11.3 | 19.3 | 0.08 | 0.08 | 0.00 | 42 | 1013.2 |
| 20260506094807 | 23 | 266 | 11.3 | 12.9 | 0.08 | 0.08 | 0.00 | 40 | 1013.2 |
| 20260506094504 | 23 | 266 | 6.4 | 14.5 | 0.08 | 0.08 | 0.00 | 41 | 1013.2 |
| 20260506094200 | 23 | 266 | 9.7 | 9.7 | 0.08 | 0.08 | 0.00 | 43 | 1013.1 |
| 20260506093857 | 23 | 266 | 3.2 | 14.5 | 0.08 | 0.08 | 0.00 | 43 | 1013.4 |
| 20260506093554 | 23 | 266 | 3.2 | 9.7 | 0.08 | 0.08 | 0.00 | 41 | 1013.2 |
| 20260506093250 | 23 | 266 | 1.6 | 17.7 | 0.08 | 0.08 | 0.00 | 43 | 1013.4 |
| 20260506092947 | 23 | 266 | 4.8 | 12.9 | 0.08 | 0.08 | 0.00 | 44 | 1013.3 |
| 20260506092644 | 22 | 266 | 4.8 | 14.5 | 0.08 | 0.08 | 0.00 | 46 | 1013.3 |
| 20260506092340 | 23 | 266 | 3.2 | 6.4 | 0.08 | 0.08 | 0.00 | 44 | 1013.4 |
| 20260506092037 | 22 | 266 | 0.0 | 12.9 | 0.08 | 0.08 | 0.00 | 47 | 1013.5 |
| 20260506091734 | 22 | 266 | 1.6 | 17.7 | 0.08 | 0.08 | 0.00 | 45 | 1013.5 |
| 20260506091430 | 22 | 266 | 3.2 | 16.1 | 0.08 | 0.08 | 0.00 | 46 | 1013.5 |
| 20260506091127 | 22 | 266 | 11.3 | 17.7 | 0.08 | 0.08 | 0.00 | 46 | 1013.6 |
| 20260506090824 | 22 | 266 | 3.2 | 6.4 | 0.08 | 0.08 | 0.00 | 47 | 1013.9 |
| 20260506090520 | 22 | 266 | 3.2 | 19.3 | 0.08 | 0.08 | 0.00 | 47 | 1013.6 |
| 20260506090217 | 22 | 266 | 4.8 | 19.3 | 0.08 | 0.08 | 0.00 | 47 | 1013.6 |
| 20260506085913 | 22 | 266 | 4.8 | 19.3 | 0.08 | 0.08 | 0.00 | 48 | 1013.6 |
| 20260506085610 | 22 | 266 | 4.8 | 19.3 | 0.08 | 0.08 | 0.00 | 51 | 1013.7 |
| 20260506085307 | 22 | 266 | 4.8 | 16.1 | 0.08 | 0.08 | 0.00 | 51 | 1013.9 |
| 20260506085003 | 22 | 266 | 8.0 | 12.9 | 0.08 | 0.08 | 0.00 | 51 | 1013.8 |
| 20260506084700 | 22 | 266 | 1.6 | 9.7 | 0.08 | 0.08 | 0.00 | 49 | 1013.7 |
| 20260506084357 | 22 | 266 | 0.0 | 6.4 | 0.08 | 0.08 | 0.00 | 52 | 1013.7 |
| 20260506084053 | 22 | 266 | 0.0 | 6.4 | 0.08 | 0.08 | 0.00 | 52 | 1013.6 |
| 20260506083750 | 22 | 266 | 0.0 | 6.4 | 0.08 | 0.08 | 0.00 | 51 | 1013.6 |
| 20260506083447 | 21 | 266 | 0.0 | 4.8 | 0.08 | 0.08 | 0.00 | 53 | 1013.5 |
| 20260506083143 | 21 | 266 | 0.0 | 12.9 | 0.08 | 0.08 | 0.00 | 54 | 1013.6 |
| 20260506082840 | 21 | 266 | 8.0 | 12.9 | 0.08 | 0.08 | 0.00 | 53 | 1013.7 |
| 20260506082537 | 21 | 266 | 1.6 | 4.8 | 0.08 | 0.08 | 0.00 | 53 | 1013.8 |
| 20260506082233 | 21 | 266 | 1.6 | 4.8 | 0.08 | 0.08 | 0.00 | 55 | 1013.9 |
| 20260506081930 | 21 | 266 | 0.0 | 12.9 | 0.08 | 0.08 | 0.00 | 56 | 1013.7 |
| 20260506081626 | 20 | 266 | 8.0 | 12.9 | 0.08 | 0.08 | 0.00 | 57 | 1013.8 |
| 20260506081323 | 20 | 266 | 4.8 | 12.9 | 0.08 | 0.08 | 0.00 | 59 | 1014.0 |
| 20260506081020 | 20 | 266 | 6.4 | 12.9 | 0.08 | 0.08 | 0.00 | 60 | 1013.9 |
| 20260506080716 | 20 | 266 | 4.8 | 9.7 | 0.08 | 0.08 | 0.00 | 58 | 1014.0 |
| 20260506080412 | 20 | 266 | 0.0 | 8.0 | 0.08 | 0.08 | 0.00 | 60 | 1014.1 |
| 20260506080108 | 20 | 266 | 3.2 | 8.0 | 0.08 | 0.08 | 0.00 | 59 | 1014.0 |
| 20260506073338 | 20 | 266 | 0.0 | 6.4 | 0.08 | 0.08 | 0.00 | 60 | 1013.9 |
| 20260506073035 | 19 | 266 | 1.6 | 6.4 | 0.08 | 0.08 | 0.00 | 60 | 1013.7 |
| 20260506072732 | 19 | 266 | 1.6 | 6.4 | 0.08 | 0.08 | 0.00 | 62 | 1013.8 |
| 20260506072428 | 19 | 266 | 3.2 | 4.8 | 0.08 | 0.08 | 0.00 | 61 | 1013.9 |
| 20260506072125 | 19 | 266 | 0.0 | 6.4 | 0.08 | 0.08 | 0.00 | 62 | 1013.9 |
| 20260506071821 | 19 | 266 | 0.0 | 8.0 | 0.08 | 0.08 | 0.00 | 61 | 1014.1 |
| 20260506071518 | 18 | 266 | 1.6 | 9.7 | 0.08 | 0.08 | 0.00 | 62 | 1014.1 |
| 20260506071215 | 19 | 266 | 8.0 | 9.7 | 0.08 | 0.08 | 0.00 | 61 | 1014.0 |
| 20260506070911 | 19 | 266 | 1.6 | 6.4 | 0.08 | 0.08 | 0.00 | 61 | 1013.9 |
| 20260506070608 | 19 | 266 | 0.0 | 4.8 | 0.08 | 0.08 | 0.00 | 63 | 1013.9 |
| 20260506070305 | 18 | 266 | 1.6 | 6.4 | 0.08 | 0.08 | 0.00 | 62 | 1013.8 |
| 20260506062321 | 16 | 266 | 0.0 | 0.0 | 0.08 | 0.08 | 0.00 | 69 | 1013.9 |
| 20260506062018 | 16 | 266 | 0.0 | 0.0 | 0.08 | 0.08 | 0.00 | 70 | 1014.1 |
| 20260506061714 | 15 | 266 | 0.0 | 3.2 | 0.08 | 0.08 | 0.00 | 73 | 1014.2 |
| 20260506061411 | 15 | 266 | 1.6 | 3.2 | 0.08 | 0.08 | 0.00 | 73 | 1014.0 |
| 20260506061107 | 15 | 266 | 0.0 | 1.6 | 0.08 | 0.08 | 0.00 | 73 | 1014.2 |
| 20260506060804 | 15 | 266 | 0.0 | 0.0 | 0.08 | 0.08 | 0.00 | 73 | 1014.1 |
| 20260506060501 | 15 | 266 | 0.0 | 1.6 | 0.08 | 0.08 | 0.00 | 73 | 1014.0 |
| 20260506060157 | 15 | 266 | 0.0 | 1.6 | 0.08 | 0.08 | 0.00 | 74 | 1014.1 |
| 20260506051304 | 10 | 266 | 1.6 | 4.8 | 0.08 | 0.08 | 0.00 | 87 | 1014.1 |
| 20260506051000 | 10 | 266 | 3.2 | 4.8 | 0.08 | 0.08 | 0.00 | 87 | 1014.3 |
| 20260506050657 | 10 | 266 | 3.2 | 4.8 | 0.08 | 0.08 | 0.00 | 88 | 1014.3 |
| 20260506050354 | 10 | 266 | 1.6 | 3.2 | 0.08 | 0.08 | 0.00 | 89 | 1014.4 |
| 20260506044837 | 9 | 266 | 3.2 | 4.8 | 0.08 | 0.08 | 0.00 | 89 | 1014.1 |
| 20260506044533 | 9 | 266 | 4.8 | 4.8 | 0.08 | 0.08 | 0.00 | 90 | 1014.4 |
| 20260506044230 | 9 | 266 | 3.2 | 4.8 | 0.08 | 0.08 | 0.00 | 90 | 1014.2 |
| 20260506043927 | 9 | 266 | 3.2 | 4.8 | 0.08 | 0.08 | 0.00 | 90 | 1014.3 |
| 20260506043623 | 8 | 266 | 3.2 | 3.2 | 0.08 | 0.08 | 0.00 | 91 | 1014.2 |
| 20260506043320 | 8 | 266 | 1.6 | 3.2 | 0.08 | 0.08 | 0.00 | 91 | 1014.4 |
| 20260506043017 | 8 | 266 | 0.0 | 0.0 | 0.08 | 0.08 | 0.00 | 91 | 1014.3 |
| 20260506042713 | 8 | 266 | 0.0 | 0.0 | 0.08 | 0.08 | 0.00 | 92 | 1013.9 |
| 20260506042410 | 8 | 266 | 0.0 | 0.0 | 0.08 | 0.08 | 0.00 | 92 | 1014.1 |
| 20260506042107 | 8 | 266 | 0.0 | 0.0 | 0.08 | 0.08 | 0.00 | 92 | 1014.1 |
| 20260506041803 | 8 | 266 | 0.0 | 0.0 | 0.08 | 0.08 | 0.00 | 93 | 1014.1 |
| 20260506041500 | 8 | 266 | 0.0 | 0.0 | 0.08 | 0.08 | 0.00 | 93 | 1014.1 |
| 20260506041157 | 8 | 266 | 0.0 | 0.0 | 0.08 | 0.08 | 0.00 | 93 | 1014.2 |
| 20260506040853 | 8 | 266 | 0.0 | 0.0 | 0.08 | 0.08 | 0.00 | 93 | 1014.1 |
| 20260506040550 | 7 | 266 | 0.0 | 0.0 | 0.08 | 0.08 | 0.00 | 93 | 1014.0 |
| 20260506040246 | 7 | 266 | 0.0 | 0.0 | 0.08 | 0.08 | 0.00 | 92 | 1014.1 |
| 20260506035943 | 8 | 266 | 0.0 | 0.0 | 0.08 | 0.08 | 0.00 | 93 | 1014.1 |
| 20260506035640 | 8 | 266 | 0.0 | 0.0 | 0.08 | 0.08 | 0.00 | 93 | 1014.1 |
| 20260506035336 | 8 | 266 | 0.0 | 0.0 | 0.08 | 0.08 | 0.00 | 93 | 1014.1 |
| 20260506035033 | 8 | 266 | 0.0 | 0.0 | 0.08 | 0.08 | 0.00 | 93 | 1014.0 |
| 20260506034730 | 8 | 266 | 0.0 | 0.0 | 0.08 | 0.08 | 0.00 | 93 | 1014.1 |
| 20260506034426 | 8 | 266 | 0.0 | 0.0 | 0.08 | 0.08 | 0.00 | 93 | 1014.1 |
| 20260506034123 | 8 | 266 | 0.0 | 0.0 | 0.08 | 0.08 | 0.00 | 93 | 1014.1 |
| 20260506033820 | 8 | 266 | 0.0 | 0.0 | 0.08 | 0.08 | 0.00 | 92 | 1014.2 |
| 20260506033516 | 8 | 266 | 0.0 | 0.0 | 0.08 | 0.08 | 0.00 | 92 | 1014.0 |
| 20260506033213 | 8 | 266 | 0.0 | 0.0 | 0.08 | 0.08 | 0.00 | 92 | 1013.9 |
| 20260506032910 | 8 | 266 | 0.0 | 0.0 | 0.08 | 0.08 | 0.00 | 92 | 1013.9 |
| 20260506032606 | 8 | 266 | 0.0 | 0.0 | 0.08 | 0.08 | 0.00 | 92 | 1014.0 |
| 20260506032305 | 8 | 266 | 0.0 | 0.0 | 0.08 | 0.08 | 0.00 | 92 | 1014.0 |
| 20260506032000 | 8 | 266 | 0.0 | 0.0 | 0.08 | 0.08 | 0.00 | 92 | 1014.0 |
| 20260506031656 | 8 | 266 | 0.0 | 0.0 | 0.08 | 0.08 | 0.00 | 93 | 1013.9 |
| 20260506031353 | 8 | 266 | 0.0 | 0.0 | 0.08 | 0.08 | 0.00 | 92 | 1014.0 |
| 20260506031049 | 8 | 266 | 0.0 | 0.0 | 0.08 | 0.08 | 0.00 | 92 | 1013.9 |
| 20260506030746 | 8 | 266 | 0.0 | 0.0 | 0.08 | 0.08 | 0.00 | 92 | 1014.1 |
| 20260506030443 | 8 | 266 | 0.0 | 0.0 | 0.08 | 0.08 | 0.00 | 93 | 1014.0 |
| 20260506030139 | 8 | 266 | 0.0 | 0.0 | 0.08 | 0.08 | 0.00 | 93 | 1013.8 |
| 20260506025836 | 8 | 266 | 0.0 | 0.0 | 0.08 | 0.08 | 0.00 | 93 | 1013.9 |
| 20260506025533 | 8 | 266 | 0.0 | 0.0 | 0.08 | 0.08 | 0.00 | 93 | 1013.7 |
| 20260506025229 | 8 | 266 | 0.0 | 0.0 | 0.08 | 0.08 | 0.00 | 92 | 1014.0 |
| 20260506024926 | 8 | 266 | 0.0 | 0.0 | 0.08 | 0.08 | 0.00 | 93 | 1013.9 |
| 20260506024623 | 8 | 266 | 0.0 | 0.0 | 0.08 | 0.08 | 0.00 | 92 | 1013.8 |
| 20260506024319 | 8 | 266 | 0.0 | 0.0 | 0.08 | 0.08 | 0.00 | 92 | 1014.0 |
| 20260506024016 | 8 | 266 | 0.0 | 0.0 | 0.08 | 0.08 | 0.00 | 92 | 1013.9 |
| 20260506023712 | 8 | 266 | 0.0 | 0.0 | 0.08 | 0.08 | 0.00 | 92 | 1013.7 |
| 20260506023409 | 8 | 266 | 0.0 | 0.0 | 0.08 | 0.08 | 0.00 | 92 | 1013.6 |
| 20260506023106 | 8 | 266 | 0.0 | 0.0 | 0.08 | 0.08 | 0.00 | 92 | 1013.7 |
| 20260506022802 | 8 | 266 | 0.0 | 0.0 | 0.08 | 0.08 | 0.00 | 92 | 1013.8 |
| 20260506022459 | 8 | 266 | 0.0 | 0.0 | 0.08 | 0.08 | 0.00 | 92 | 1013.7 |
| 20260506022156 | 8 | 266 | 0.0 | 0.0 | 0.08 | 0.08 | 0.00 | 92 | 1013.7 |
| 20260506021852 | 8 | 266 | 0.0 | 3.2 | 0.08 | 0.08 | 0.00 | 92 | 1013.4 |
| 20260506021549 | 8 | 266 | 1.6 | 3.2 | 0.08 | 0.08 | 0.00 | 92 | 1013.6 |
| 20260506021246 | 8 | 266 | 1.6 | 3.2 | 0.08 | 0.08 | 0.00 | 92 | 1013.5 |
| 20260506020942 | 8 | 266 | 0.0 | 0.0 | 0.08 | 0.08 | 0.00 | 92 | 1013.4 |
| 20260506020639 | 8 | 266 | 0.0 | 0.0 | 0.08 | 0.08 | 0.00 | 92 | 1013.7 |
| 20260506020335 | 8 | 266 | 0.0 | 0.0 | 0.08 | 0.08 | 0.00 | 93 | 1013.5 |
| 20260506020032 | 8 | 266 | 0.0 | 1.6 | 0.08 | 0.08 | 0.00 | 92 | 1013.5 |
| 20260506015729 | 8 | 266 | 0.0 | 0.0 | 0.08 | 0.08 | 0.00 | 92 | 1013.4 |
| 20260506015425 | 8 | 266 | 0.0 | 0.0 | 0.08 | 0.08 | 0.00 | 92 | 1013.5 |
| 20260506015122 | 8 | 266 | 0.0 | 0.0 | 0.08 | 0.08 | 0.00 | 91 | 1013.4 |
| 20260506014819 | 8 | 266 | 1.6 | 3.2 | 0.08 | 0.08 | 0.00 | 91 | 1013.2 |
| 20260506014515 | 8 | 266 | 1.6 | 3.2 | 0.08 | 0.08 | 0.00 | 92 | 1013.3 |
| 20260506014212 | 8 | 266 | 0.0 | 3.2 | 0.08 | 0.08 | 0.00 | 92 | 1013.5 |
| 20260506013909 | 8 | 266 | 1.6 | 3.2 | 0.08 | 0.08 | 0.00 | 92 | 1013.4 |
| 20260506013605 | 8 | 266 | 0.0 | 0.0 | 0.08 | 0.08 | 0.00 | 91 | 1013.4 |
| 20260506013302 | 8 | 266 | 0.0 | 0.0 | 0.08 | 0.08 | 0.00 | 91 | 1013.4 |
| 20260506012958 | 8 | 266 | 0.0 | 3.2 | 0.08 | 0.08 | 0.00 | 91 | 1013.3 |
| 20260506012655 | 8 | 266 | 1.6 | 3.2 | 0.08 | 0.08 | 0.00 | 91 | 1013.3 |
| 20260506012352 | 8 | 266 | 1.6 | 3.2 | 0.08 | 0.08 | 0.00 | 91 | 1013.1 |
| 20260506012049 | 8 | 266 | 3.2 | 3.2 | 0.08 | 0.08 | 0.00 | 91 | 1013.3 |
| 20260506011745 | 8 | 266 | 0.0 | 0.0 | 0.08 | 0.08 | 0.00 | 91 | 1013.2 |
| 20260506011442 | 8 | 266 | 0.0 | 0.0 | 0.08 | 0.08 | 0.00 | 91 | 1013.4 |
| 20260506011138 | 8 | 266 | 0.0 | 0.0 | 0.08 | 0.08 | 0.00 | 90 | 1013.2 |
| 20260506010835 | 8 | 266 | 0.0 | 0.0 | 0.08 | 0.08 | 0.00 | 90 | 1013.3 |
| 20260506010532 | 8 | 266 | 0.0 | 1.6 | 0.08 | 0.08 | 0.00 | 90 | 1013.0 |
| 20260506010228 | 9 | 266 | 0.0 | 3.2 | 0.08 | 0.08 | 0.00 | 89 | 1013.1 |
| 20260506005925 | 9 | 266 | 1.6 | 4.8 | 0.08 | 0.08 | 0.00 | 90 | 1013.1 |
| 20260506005622 | 9 | 266 | 0.0 | 0.0 | 0.08 | 0.08 | 0.00 | 90 | 1013.1 |
| 20260506005318 | 9 | 266 | 0.0 | 0.0 | 0.08 | 0.08 | 0.00 | 90 | 1013.2 |
| 20260506005015 | 9 | 266 | 0.0 | 0.0 | 0.08 | 0.08 | 0.00 | 90 | 1013.2 |
| 20260506004712 | 9 | 266 | 0.0 | 0.0 | 0.08 | 0.08 | 0.00 | 90 | 1013.0 |
| 20260506004408 | 9 | 266 | 0.0 | 0.0 | 0.08 | 0.08 | 0.00 | 89 | 1013.0 |
| 20260506004105 | 9 | 266 | 0.0 | 1.6 | 0.08 | 0.08 | 0.00 | 89 | 1013.4 |
| 20260506003802 | 9 | 266 | 0.0 | 3.2 | 0.08 | 0.08 | 0.00 | 89 | 1013.2 |
| 20260506003458 | 10 | 265 | 1.6 | 4.8 | 0.08 | 0.08 | 0.00 | 88 | 1013.2 |
| 20260506003155 | 10 | 261 | 3.2 | 4.8 | 0.08 | 0.08 | 0.00 | 88 | 1012.9 |
| 20260506002851 | 10 | 258 | 3.2 | 4.8 | 0.08 | 0.08 | 0.00 | 88 | 1013.1 |
| 20260506002548 | 10 | 253 | 1.6 | 3.2 | 0.08 | 0.08 | 0.00 | 88 | 1013.0 |
| 20260506002245 | 10 | 247 | 1.6 | 3.2 | 0.08 | 0.08 | 0.00 | 88 | 1013.0 |
| 20260506001941 | 10 | 240 | 3.2 | 3.2 | 0.08 | 0.08 | 0.00 | 87 | 1013.1 |
| 20260506001638 | 10 | 232 | 3.2 | 4.8 | 0.08 | 0.08 | 0.00 | 87 | 1013.0 |
| 20260506001335 | 10 | 224 | 1.6 | 4.8 | 0.08 | 0.08 | 0.00 | 87 | 1013.0 |
| 20260506001031 | 10 | 214 | 3.2 | 4.8 | 0.08 | 0.08 | 0.00 | 88 | 1013.0 |
| 20260506000728 | 10 | 195 | 0.0 | 0.0 | 0.08 | 0.08 | 0.00 | 87 | 1013.0 |
| 20260506000425 | 10 | 168 | 0.0 | 0.0 | 0.08 | 0.08 | 0.00 | 87 | 1013.2 |
| 20260506000121 | 10 | 147 | 0.0 | 0.0 | 0.08 | 0.08 | 0.00 | 87 | 1013.2 |
| 20260505235818 | 10 | 135 | 0.0 | 1.6 | 0.08 | 0.08 | 0.00 | 86 | 1013.0 |
| 20260505235515 | 11 | 125 | 0.0 | 1.6 | 0.08 | 0.08 | 0.00 | 86 | 1013.1 |
| 20260505235211 | 11 | 116 | 0.0 | 0.0 | 0.08 | 0.08 | 0.00 | 86 | 1013.2 |
| 20260505234908 | 11 | 114 | 0.0 | 3.2 | 0.08 | 0.08 | 0.00 | 85 | 1013.1 |
| 20260505234605 | 11 | 113 | 1.6 | 3.2 | 0.08 | 0.08 | 0.00 | 85 | 1012.9 |
| 20260505234301 | 11 | 110 | 0.0 | 3.2 | 0.08 | 0.08 | 0.00 | 85 | 1013.1 |
| 20260505233958 | 11 | 109 | 0.0 | 3.2 | 0.08 | 0.08 | 0.00 | 85 | 1012.9 |
| 20260505233654 | 11 | 107 | 1.6 | 1.6 | 0.08 | 0.08 | 0.00 | 85 | 1013.2 |
| 20260505233351 | 11 | 106 | 0.0 | 3.2 | 0.08 | 0.08 | 0.00 | 85 | 1013.0 |
| 20260505233048 | 11 | 102 | 0.0 | 0.0 | 0.08 | 0.08 | 0.00 | 85 | 1013.1 |
| 20260505232744 | 11 | 102 | 0.0 | 0.0 | 0.08 | 0.08 | 0.00 | 85 | 1013.0 |
| 20260505232441 | 11 | 101 | 0.0 | 0.0 | 0.08 | 0.08 | 0.00 | 85 | 1013.3 |
| 20260505232138 | 11 | 99 | 0.0 | 0.0 | 0.08 | 0.08 | 0.00 | 85 | 1013.2 |
| 20260505231834 | 11 | 97 | 0.0 | 0.0 | 0.08 | 0.08 | 0.00 | 84 | 1013.2 |
| 20260505231531 | 11 | 97 | 0.0 | 0.0 | 0.08 | 0.08 | 0.00 | 83 | 1013.1 |
| 20260505231228 | 11 | 98 | 0.0 | 1.6 | 0.08 | 0.08 | 0.00 | 83 | 1013.1 |
| 20260505230924 | 12 | 99 | 0.0 | 1.6 | 0.08 | 0.08 | 0.00 | 83 | 1013.0 |
| 20260505230621 | 12 | 100 | 0.0 | 0.0 | 0.08 | 0.08 | 0.00 | 82 | 1013.0 |
| 20260505230318 | 12 | 102 | 0.0 | 3.2 | 0.08 | 0.08 | 0.00 | 82 | 1013.1 |
| 20260505230014 | 12 | 104 | 1.6 | 6.4 | 0.08 | 0.08 | 0.00 | 80 | 1013.0 |
| 20260505225711 | 12 | 103 | 4.8 | 6.4 | 0.08 | 0.08 | 0.00 | 79 | 1013.2 |
| 20260505225407 | 13 | 102 | 1.6 | 6.4 | 0.08 | 0.08 | 0.00 | 78 | 1013.2 |
| 20260505225104 | 13 | 102 | 1.6 | 4.8 | 0.08 | 0.08 | 0.00 | 78 | 1013.2 |
| 20260505224801 | 14 | 101 | 0.0 | 3.2 | 0.08 | 0.08 | 0.00 | 76 | 1013.0 |
| 20260505224457 | 14 | 102 | 0.0 | 0.0 | 0.08 | 0.08 | 0.00 | 75 | 1013.1 |
| 20260505224154 | 14 | 105 | 0.0 | 3.2 | 0.08 | 0.08 | 0.00 | 75 | 1013.1 |
| 20260505223850 | 15 | 109 | 0.0 | 4.8 | 0.08 | 0.08 | 0.00 | 75 | 1012.9 |
| 20260505223547 | 15 | 112 | 1.6 | 6.4 | 0.08 | 0.08 | 0.00 | 75 | 1012.9 |
| 20260505223244 | 15 | 116 | 1.6 | 9.7 | 0.08 | 0.00 | 0.00 | 74 | 1012.8 |
| 20260505222940 | 15 | 113 | 0.0 | 8.0 | 0.08 | 0.00 | 0.00 | 74 | 1012.6 |
| 20260505222637 | 15 | 115 | 3.2 | 8.0 | 0.08 | 0.00 | 0.00 | 74 | 1012.9 |
| 20260505222334 | 15 | 112 | 3.2 | 12.9 | 0.08 | 0.00 | 0.00 | 74 | 1012.9 |
| 20260505222030 | 15 | 108 | 3.2 | 12.9 | 0.08 | 0.00 | 0.00 | 74 | 1012.8 |
| 20260505221727 | 15 | 102 | 1.6 | 9.7 | 0.08 | 0.00 | 0.00 | 74 | 1012.9 |
| 20260505221423 | 15 | 102 | 3.2 | 9.7 | 0.08 | 0.00 | 0.00 | 74 | 1012.9 |
| 20260505221120 | 15 | 99 | 0.0 | 8.0 | 0.08 | 0.00 | 0.00 | 74 | 1013.0 |
| 20260505220817 | 15 | 98 | 0.0 | 6.4 | 0.08 | 0.00 | 0.00 | 74 | 1012.9 |
| 20260505220513 | 15 | 98 | 1.6 | 8.0 | 0.08 | 0.00 | 0.00 | 74 | 1012.9 |
| 20260505220210 | 14 | 95 | 0.0 | 6.4 | 0.08 | 0.00 | 0.00 | 75 | 1012.8 |
| 20260505215907 | 14 | 96 | 4.8 | 6.4 | 0.08 | 0.00 | 0.00 | 75 | 1012.9 |
| 20260505215603 | 14 | 94 | 0.0 | 3.2 | 0.08 | 0.00 | 0.00 | 75 | 1013.0 |
| 20260505215300 | 14 | 95 | 0.0 | 3.2 | 0.08 | 0.00 | 0.00 | 75 | 1012.9 |
| 20260505214957 | 15 | 97 | 0.0 | 3.2 | 0.08 | 0.00 | 0.00 | 74 | 1013.1 |
| 20260505214653 | 14 | 98 | 0.0 | 3.2 | 0.08 | 0.00 | 0.00 | 74 | 1013.1 |
| 20260505214350 | 15 | 100 | 0.0 | 9.7 | 0.08 | 0.00 | 0.00 | 74 | 1013.1 |
| 20260505214047 | 14 | 99 | 6.4 | 9.7 | 0.08 | 0.00 | 0.00 | 75 | 1012.9 |
| 20260505213743 | 14 | 98 | 0.0 | 4.8 | 0.08 | 0.00 | 0.00 | 75 | 1012.7 |
| 20260505213440 | 14 | 100 | 0.0 | 12.9 | 0.08 | 0.00 | 0.00 | 74 | 1013.0 |
| 20260505213137 | 14 | 95 | 1.6 | 4.8 | 0.08 | 0.00 | 0.00 | 76 | 1012.9 |
| 20260505212833 | 13 | 95 | 3.2 | 4.8 | 0.08 | 0.00 | 0.00 | 76 | 1013.0 |
| 20260505212530 | 13 | 94 | 0.0 | 0.0 | 0.08 | 0.00 | 0.00 | 76 | 1013.0 |
| 20260505212226 | 13 | 95 | 0.0 | 1.6 | 0.08 | 0.00 | 0.00 | 75 | 1012.9 |
| 20260505211923 | 14 | 97 | 0.0 | 3.2 | 0.08 | 0.00 | 0.00 | 74 | 1013.0 |
| 20260505211620 | 14 | 100 | 0.0 | 3.2 | 0.08 | 0.00 | 0.00 | 74 | 1013.0 |
| 20260505211316 | 15 | 103 | 0.0 | 3.2 | 0.08 | 0.00 | 0.00 | 73 | 1012.9 |
| 20260505211013 | 15 | 107 | 0.0 | 3.2 | 0.08 | 0.00 | 0.00 | 73 | 1012.9 |
| 20260505210710 | 15 | 108 | 3.2 | 4.8 | 0.08 | 0.00 | 0.00 | 73 | 1013.0 |
| 20260505210406 | 15 | 110 | 1.6 | 4.8 | 0.08 | 0.00 | 0.00 | 73 | 1013.0 |
| 20260505210103 | 15 | 121 | 0.0 | 4.8 | 0.08 | 0.00 | 0.00 | 73 | 1013.0 |
| 20260505205800 | 15 | 144 | 0.0 | 4.8 | 0.08 | 0.00 | 0.00 | 73 | 1012.8 |
| 20260505205456 | 15 | 225 | 0.0 | 4.8 | 0.08 | 0.00 | 0.00 | 73 | 1012.9 |
| 20260505205153 | 15 | 249 | 0.0 | 4.8 | 0.08 | 0.00 | 0.00 | 73 | 1012.8 |
| 20260505204850 | 15 | 257 | 0.0 | 1.6 | 0.08 | 0.00 | 0.00 | 73 | 1012.9 |
| 20260505204546 | 15 | 257 | 0.0 | 1.6 | 0.08 | 0.00 | 0.00 | 73 | 1012.8 |
| 20260505204243 | 15 | 256 | 0.0 | 6.4 | 0.08 | 0.00 | 0.00 | 72 | 1012.9 |
| 20260505203940 | 15 | 256 | 0.0 | 6.4 | 0.08 | 0.00 | 0.00 | 72 | 1013.0 |
| 20260505203636 | 15 | 258 | 3.2 | 4.8 | 0.08 | 0.00 | 0.00 | 72 | 1013.0 |
| 20260505203333 | 15 | 259 | 0.0 | 3.2 | 0.08 | 0.00 | 0.00 | 71 | 1013.0 |
| 20260505203029 | 15 | 261 | 0.0 | 3.2 | 0.08 | 0.00 | 0.00 | 71 | 1013.1 |
| 20260505202726 | 15 | 260 | 0.0 | 3.2 | 0.08 | 0.00 | 0.00 | 71 | 1013.2 |
| 20260505202423 | 15 | 260 | 0.0 | 0.0 | 0.08 | 0.00 | 0.00 | 71 | 1013.2 |
| 20260505202119 | 15 | 258 | 0.0 | 3.2 | 0.08 | 0.00 | 0.00 | 71 | 1013.4 |
| 20260505201816 | 15 | 256 | 0.0 | 4.8 | 0.08 | 0.00 | 0.00 | 70 | 1013.3 |
| 20260505201513 | 15 | 256 | 0.0 | 4.8 | 0.08 | 0.00 | 0.00 | 70 | 1013.1 |
| 20260505201209 | 15 | 254 | 0.0 | 6.4 | 0.08 | 0.00 | 0.00 | 69 | 1013.3 |
| 20260505200906 | 15 | 253 | 0.0 | 9.7 | 0.08 | 0.00 | 0.00 | 69 | 1013.4 |
| 20260505200603 | 15 | 254 | 8.0 | 9.7 | 0.08 | 0.00 | 0.00 | 69 | 1013.4 |
| 20260505200259 | 16 | 254 | 6.4 | 14.5 | 0.08 | 0.00 | 0.00 | 69 | 1013.0 |
| 20260505195956 | 16 | 254 | 0.0 | 14.5 | 0.08 | 0.00 | 0.00 | 68 | 1013.2 |
| 20260505195653 | 16 | 255 | 3.2 | 12.9 | 0.08 | 0.00 | 0.00 | 68 | 1013.1 |
| 20260505195349 | 16 | 255 | 0.0 | 12.9 | 0.08 | 0.00 | 0.00 | 68 | 1013.1 |
| 20260505195046 | 16 | 256 | 0.0 | 9.7 | 0.08 | 0.00 | 0.00 | 68 | 1013.2 |
| 20260505194743 | 16 | 257 | 4.8 | 8.0 | 0.08 | 0.00 | 0.00 | 68 | 1013.2 |
| 20260505194439 | 16 | 258 | 3.2 | 8.0 | 0.08 | 0.00 | 0.00 | 67 | 1013.1 |
| 20260505194136 | 16 | 259 | 0.0 | 8.0 | 0.08 | 0.00 | 0.00 | 68 | 1013.2 |
| 20260505193832 | 16 | 259 | 0.0 | 8.0 | 0.08 | 0.00 | 0.00 | 67 | 1013.0 |
| 20260505193529 | 16 | 259 | 0.0 | 12.9 | 0.08 | 0.00 | 0.00 | 66 | 1013.1 |
| 20260505193226 | 16 | 260 | 1.6 | 12.9 | 0.08 | 0.00 | 0.00 | 66 | 1012.9 |
| 20260505192922 | 16 | 260 | 0.0 | 14.5 | 0.08 | 0.00 | 0.00 | 66 | 1013.1 |
| 20260505192619 | 16 | 260 | 1.6 | 16.1 | 0.08 | 0.00 | 0.00 | 66 | 1013.0 |
| 20260505192316 | 16 | 260 | 3.2 | 14.5 | 0.08 | 0.00 | 0.00 | 65 | 1012.8 |
| 20260505192013 | 16 | 260 | 1.6 | 19.3 | 0.08 | 0.00 | 0.00 | 65 | 1012.9 |